This is the latest recevied weather packets stored in our database for station/object SP6PGH-13. If no packets are shown the sender has not sent any weather packets the latest 10 day(s).
| Time | Temp. | Humidity | Pressure | Rain* | Wind** | Luminosity | Snow |
|---|---|---|---|---|---|---|---|
| 1776946474 | 17.78° C | 39% | 1004 hPa | - | - | 681 W/m² | - |
| 1776945573 | 16.11° C | 42% | 1004.1 hPa | - | - | 708 W/m² | - |
| 1776944672 | 17.22° C | 42% | 1004.2 hPa | - | - | 726 W/m² | - |
| 1776943771 | 16.11° C | 44% | 1004.2 hPa | - | - | 674 W/m² | - |
| 1776942870 | 16.67° C | 44% | 1004.5 hPa | - | - | 696 W/m² | - |
| 1776941969 | 16.11° C | 43% | 1004.4 hPa | - | - | 688 W/m² | - |
| 1776941068 | 16.11° C | 41% | 1004.5 hPa | - | - | 606 W/m² | - |
| 1776940167 | 16.11° C | 41% | 1004.6 hPa | - | - | 624 W/m² | - |
| 1776939266 | 15.56° C | 41% | 1004.6 hPa | - | - | 668 W/m² | - |
| 1776938364 | 15° C | 41% | 1004.6 hPa | - | - | 652 W/m² | - |
| 1776937464 | 15° C | 40% | 1004.7 hPa | - | - | 656 W/m² | - |
| 1776936562 | 15° C | 40% | 1004.8 hPa | - | - | 631 W/m² | - |
| 1776935661 | 13.89° C | 41% | 1004.8 hPa | - | - | 612 W/m² | - |
| 1776934760 | 13.89° C | 40% | 1004.8 hPa | - | - | 616 W/m² | - |
| 1776933859 | 14.44° C | 43% | 1004.8 hPa | - | - | 610 W/m² | - |
| 1776932958 | 13.33° C | 44% | 1004.8 hPa | - | - | 511 W/m² | - |
| 1776932057 | 13.33° C | 43% | 1004.7 hPa | - | - | 490 W/m² | - |
| 1776931156 | 12.78° C | 47% | 1004.7 hPa | - | - | 438 W/m² | - |
| 1776930256 | 12.22° C | 46% | 1004.9 hPa | - | - | 397 W/m² | - |
| 1776929354 | 12.22° C | 48% | 1005 hPa | - | - | 378 W/m² | - |
| 1776928453 | 11.67° C | 48% | 1005.1 hPa | - | - | 335 W/m² | - |
| 1776927553 | 11.67° C | 48% | 1005.2 hPa | - | - | 297 W/m² | - |
| 1776926652 | 11.11° C | 49% | 1005.2 hPa | - | - | 258 W/m² | - |
| 1776925751 | 10.56° C | 50% | 1005.2 hPa | - | - | 172 W/m² | - |
| 1776924849 | 10° C | 53% | 1005.3 hPa | - | - | 49 W/m² | - |
* Rain since midnight (hover to see other rain measurements)
** Current wind speed in m/s (hover to see current wind gust speed)